sat.trackr.live / text

‹ back to catalog

HIMAWARI-8

NORAD 40267 · 2014-060A

PAYLOAD ACTIVE UNKNOWN

§ Identity

Operator
Country
JPN
Launch date
2014-10-07
Launch site
TANSC
Launch vehicle
Mass (kg)
RCS (m²)
35.80

Purposes: comms, earth_obs

External: N2YO · Heavens-Above · Gunter

§ Orbital elements

Epoch: 2026-09-19T18:56:47.531328Z

Period
1,436.06 min
Inclination
0.0048°
Eccentricity
0.0000899
Mean motion
1.00274499 rev/d
Perigee alt
35,782.0 km
Apogee alt
35,789.6 km
Semi-major
42,164.0 km
B*
0.0000e+0
RAAN
178.1158°
Arg perigee
357.8659°
Mean anomaly
247.5687°
Rev number
4,370

§ Raw data

HIMAWARI-81 40267U 14060A   26262.78943902 -.00000279  00000+0  00000+0 0  99972 40267   0.0048 178.1158 0000899 357.8659 247.5687  1.00274499 43702

JSON: /api/v1/satellites/40267 · /tle

For live sub-satellite position, see the globe view (requires WebGL).

§ Visibility from observer

Set your observer location to see the next 7 days of passes ≥ 10°. The values pass through the URL so the page stays shareable.

No JS? Fill the form by hand. The geolocation button needs JavaScript.